DW6282 Weather Reports


Display with metric or nautical units.
time (UTC)temp
F
wind
direction
speed
MPH
gust
MPH
rain 1hr
in
rain 24hr
in
rain mn
in
humidity
%
barometer
mb
20260905004529 86 219 0.0 4.0 0.00 0.00 0.00 80 1010.8
20260905003030 86 203 2.0 5.0 0.00 0.00 0.00 80 1010.7
20260905001528 87 214 0.0 4.0 0.00 0.00 0.00 79 1010.8
20260905000027 88 191 1.0 6.0 0.00 0.00 0.00 79 1010.8
20260904234537 89 216 1.0 4.0 0.00 0.00 0.00 78 1010.6
20260904233031 89 214 0.0 1.0 0.00 0.00 0.00 79 1010.6
20260904231527 90 195 0.0 3.0 0.00 0.00 0.00 77 1010.7
20260904230025 92 239 0.0 7.0 0.00 0.00 0.00 76 1010.7
20260904224526 93 201 0.0 3.0 0.00 0.00 0.00 75 1010.7
20260904223024 93 243 0.0 6.0 0.00 0.00 0.00 75 1010.7
20260904221527 94 211 0.0 4.0 0.00 0.00 0.00 73 1010.5
20260904220022 94 229 0.0 5.0 0.00 0.00 0.00 74 1010.6
20260904214522 94 198 2.0 5.0 0.00 0.00 0.00 72 1010.8
20260904213020 93 209 2.0 5.0 0.00 0.00 0.00 72 1010.8
20260904211518 94 29 0.0 2.0 0.00 0.00 0.00 75 1011.1
20260904210022 92 139 0.0 1.0 0.00 0.00 0.00 75 1011.3
20260904204517 91 210 1.0 7.0 0.00 0.00 0.00 74 1011.5
20260904203020 94 270 0.0 5.0 0.00 0.00 0.00 73 1011.5
20260904201514 95 227 0.0 4.0 0.00 0.00 0.00 74 1011.9
20260904200015 92 43 0.0 6.0 0.00 0.00 0.00 75 1011.8
20260904194512 90 16 1.0 8.0 0.00 0.00 0.00 72 1011.9
20260904193010 86 39 0.0 9.0 0.00 0.00 0.00 76 1012.1
20260904191513 88 13 7.0 16.0 0.00 0.00 0.00 75 1012.3
20260904190014 94 276 0.0 3.0 0.00 0.00 0.00 76 1012.4
20260904184507 92 195 0.0 4.0 0.00 0.00 0.00 76 1012.6
20260904183006 92 218 0.0 3.0 0.00 0.00 0.00 75 1012.7
20260904181504 92 240 0.0 6.0 0.00 0.00 0.00 77 1013.0
20260904180003 89 263 0.0 4.0 0.00 0.00 0.00 79 1013.2
20260904174503 91 282 0.0 3.0 0.00 0.00 0.00 77 1013.4
20260904173002 91 358 0.0 4.0 0.00 0.00 0.00 78 1013.3
20260904171603 90 1 0.0 3.0 0.00 0.00 0.00 80 1013.3
20260904170056 87 18 0.0 3.0 0.00 0.00 0.00 85 1013.5
20260904164557 85 42 0.0 0.0 0.00 0.00 0.00 87 1013.7
20260904163048 82 42 0.0 0.0 0.00 0.00 0.00 87 1013.7
20260904161546 82 42 0.0 2.0 0.00 0.00 0.00 85 1013.8
20260904160145 83 46 0.0 1.0 0.00 0.00 0.00 86 1013.6
20260904154544 83 7 0.0 1.0 0.00 0.00 0.00 86 1013.6
20260904153042 83 6 0.0 2.0 0.00 0.00 0.00 87 1013.4
20260904151539 84 160 0.0 0.0 0.00 0.00 0.00 89 1013.3
20260904150043 83 160 0.0 2.0 0.00 0.00 0.00 90 1013.0
20260904144536 83 311 0.0 3.0 0.00 0.00 0.00 91 1013.1
20260904143034 82 201 0.0 0.0 0.00 0.00 0.00 93 1012.9
20260904141531 81 201 0.0 0.0 0.00 0.00 0.00 93 1012.7
20260904140039 81 201 0.0 0.0 0.00 0.00 0.00 93 1012.7
20260904134530 81 201 0.0 0.0 0.00 0.00 0.00 94 1012.7
20260904133030 81 201 0.0 0.0 0.00 0.00 0.00 94 1012.6
20260904131528 80 201 0.0 0.0 0.00 0.00 0.00 95 1012.4
20260904130043 80 201 0.0 0.0 0.00 0.00 0.00 95 1012.3
20260904124527 80 201 0.0 0.0 0.00 0.00 0.00 95 1012.3
20260904123022 79 201 0.0 0.0 0.00 0.00 0.00 95 1011.9
20260904121522 79 201 0.0 0.0 0.00 0.00 0.00 95 1011.7
20260904120021 79 201 0.0 0.0 0.00 0.00 0.00 95 1011.7
20260904114520 79 201 0.0 0.0 0.00 0.00 0.00 95 1011.6
20260904113025 79 199 0.0 0.0 0.00 0.00 0.00 95 1011.6
20260904111534 79 199 0.0 0.0 0.00 0.00 0.00 94 1011.7
20260904110017 79 199 0.0 0.0 0.00 0.00 0.00 94 1011.6
20260904104516 80 199 0.0 0.0 0.00 0.00 0.00 94 1011.6
20260904103020 80 199 0.0 0.0 0.00 0.00 0.00 93 1011.4
20260904101514 80 199 0.0 0.0 0.00 0.00 0.00 94 1011.4
20260904100013 80 199 0.0 0.0 0.00 0.00 0.00 94 1011.1
20260904094512 80 199 0.0 0.0 0.00 0.00 0.00 93 1011.1
20260904093012 80 199 0.0 0.0 0.00 0.00 0.00 93 1011.0
20260904091511 80 199 0.0 0.0 0.00 0.00 0.00 93 1010.9
20260904090011 80 199 0.0 0.0 0.00 0.00 0.00 93 1010.9
20260904084511 80 199 0.0 0.0 0.00 0.00 0.00 93 1010.9
20260904083008 80 199 0.0 0.0 0.00 0.00 0.00 92 1010.9
20260904081507 80 199 0.0 0.0 0.00 0.00 0.00 92 1010.9
20260904080004 81 199 0.0 0.0 0.00 0.00 0.00 91 1011.0
20260904074501 81 199 0.0 0.0 0.00 0.00 0.00 90 1011.0
20260904073103 81 200 0.0 0.0 0.00 0.00 0.00 90 1011.1
20260904071600 81 200 0.0 1.0 0.00 0.00 0.00 90 1011.1
20260904070058 81 199 0.0 1.0 0.00 0.00 0.00 90 1011.2
20260904064557 82 199 0.0 1.0 0.00 0.00 0.00 89 1011.3
20260904063105 81 199 0.0 2.0 0.00 0.00 0.00 90 1011.2
20260904061555 81 206 0.0 0.0 0.00 0.00 0.00 90 1011.3
20260904060100 82 206 0.0 0.0 0.00 0.00 0.00 90 1011.3
20260904054552 82 206 0.0 0.0 0.00 0.00 0.00 90 1011.4
20260904053051 82 206 0.0 0.0 0.00 0.00 0.00 89 1011.3
20260904051600 82 195 0.0 2.0 0.00 0.00 0.00 89 1011.4
20260904050047 82 187 0.0 3.0 0.00 0.00 0.00 89 1011.5
20260904044547 82 205 0.0 4.0 0.00 0.00 0.00 90 1011.5
20260904043046 82 210 0.0 1.0 0.00 0.00 0.00 91 1011.4
20260904041545 82 209 0.0 1.0 0.00 0.00 0.00 90 1011.5
20260904040045 82 209 0.0 1.0 0.00 0.00 0.00 90 1011.5
20260904034544 82 206 0.0 0.0 0.00 0.00 0.00 89 1011.5
20260904033043 82 206 0.0 0.0 0.00 0.00 0.00 88 1011.5
20260904031543 82 206 0.0 0.0 0.00 0.00 0.00 89 1011.7
20260904030042 82 206 0.0 0.0 0.00 0.00 0.00 89 1011.7
20260904024543 82 206 0.0 0.0 0.00 0.00 0.00 88 1011.6
20260904023041 82 206 0.0 3.0 0.00 0.00 0.00 88 1011.5
20260904021540 82 199 0.0 1.0 0.00 0.00 0.00 89 1011.2
20260904020040 82 199 0.0 0.0 0.00 0.00 0.00 89 1011.1
20260904014548 83 199 0.0 0.0 0.00 0.00 0.00 88 1010.8
20260904013038 83 199 0.0 0.0 0.00 0.00 0.00 88 1010.7
20260904011539 83 199 0.0 1.0 0.00 0.00 0.00 88 1010.7
20260904010045 83 211 0.0 0.0 0.00 0.00 0.00 88 1010.7